| time (UTC) | temp F | wind direction | speed knots | gust knots | rain 1hr in | rain 24hr in | rain mn in | humidity % | barometer mb |
| 20260505183523 | 59 | 228 | 3.5 | 8.7 | 0.00 | 0.00 | 0.00 | 72 | 1009.6 |
| 20260505182521 | 58 | 217 | 3.5 | 7.0 | 0.00 | 0.00 | 0.00 | 73 | 1009.7 |
| 20260505181521 | 58 | 247 | 5.2 | 11.3 | 0.00 | 0.00 | 0.00 | 73 | 1010.0 |
| 20260505180523 | 58 | 224 | 3.5 | 8.7 | 0.00 | 0.00 | 0.00 | 73 | 1010.2 |
| 20260505175522 | 57 | 231 | 3.5 | 7.0 | 0.00 | 0.00 | 0.00 | 74 | 1010.3 |
| 20260505174521 | 56 | 222 | 5.2 | 9.6 | 0.00 | 0.00 | 0.00 | 74 | 1010.6 |
| 20260505173521 | 56 | 228 | 5.2 | 10.4 | 0.00 | 0.00 | 0.00 | 76 | 1010.7 |
| 20260505172540 | 55 | 218 | 6.1 | 9.6 | 0.00 | 0.00 | 0.00 | 76 | 1011.0 |
| 20260505171621 | 55 | 236 | 4.3 | 10.4 | 0.00 | 0.00 | 0.00 | 76 | 1011.0 |
| 20260505165820 | 53 | 222 | 7.0 | 12.2 | 0.00 | 0.00 | 0.00 | 79 | 1011.3 |
| 20260505164824 | 53 | 209 | 8.7 | 15.6 | 0.00 | 0.00 | 0.00 | 78 | 1011.6 |
| 20260505163921 | 55 | 226 | 7.0 | 10.4 | 0.00 | 0.00 | 0.00 | 76 | 1011.8 |
| 20260505162924 | 55 | 230 | 5.2 | 12.2 | 0.00 | 0.00 | 0.00 | 76 | 1011.9 |
| 20260505161923 | 55 | 236 | 5.2 | 11.3 | 0.00 | 0.00 | 0.00 | 76 | 1011.6 |
| 20260505160923 | 55 | 250 | 2.6 | 8.7 | 0.00 | 0.00 | 0.00 | 74 | 1011.5 |
| 20260505153020 | 55 | 210 | 7.8 | 14.8 | 0.00 | 0.00 | 0.00 | 75 | 1012.1 |
| 20260505152120 | 56 | 235 | 7.0 | 15.6 | 0.00 | 0.00 | 0.00 | 75 | 1012.2 |
| 20260505150121 | 56 | 220 | 7.8 | 13.0 | 0.00 | 0.00 | 0.00 | 75 | 1011.8 |
| 20260505124321 | 53 | 236 | 3.5 | 9.6 | 0.00 | 0.00 | 0.00 | 75 | 1012.1 |
| 20260505123420 | 53 | 228 | 3.5 | 7.8 | 0.00 | 0.00 | 0.00 | 76 | 1012.1 |
| 20260505121421 | 52 | 181 | 0.9 | 3.5 | 0.00 | 0.00 | 0.00 | 77 | 1012.1 |
| 20260505120422 | 52 | 235 | 2.6 | 7.8 | 0.00 | 0.00 | 0.00 | 77 | 1012.1 |
| 20260505114521 | 51 | 229 | 2.6 | 5.2 | 0.00 | 0.00 | 0.00 | 78 | 1011.9 |
| 20260505113520 | 50 | 239 | 1.7 | 6.1 | 0.00 | 0.00 | 0.00 | 79 | 1011.7 |
| 20260505110520 | 49 | 228 | 3.5 | 7.0 | 0.00 | 0.00 | 0.00 | 81 | 1011.8 |
| 20260505101523 | 47 | 226 | 2.6 | 7.8 | 0.00 | 0.00 | 0.00 | 84 | 1011.8 |
| 20260505100620 | 47 | 231 | 3.5 | 7.8 | 0.00 | 0.00 | 0.00 | 84 | 1011.6 |
| 20260505095621 | 47 | 226 | 4.3 | 8.7 | 0.00 | 0.00 | 0.00 | 84 | 1011.4 |
| 20260505094621 | 46 | 227 | 1.7 | 6.1 | 0.00 | 0.00 | 0.00 | 84 | 1011.4 |
| 20260505093622 | 47 | 239 | 1.7 | 5.2 | 0.00 | 0.00 | 0.00 | 84 | 1011.3 |
| 20260505092622 | 47 | 237 | 1.7 | 5.2 | 0.00 | 0.00 | 0.00 | 84 | 1011.2 |
| 20260505091621 | 47 | 261 | 0.0 | 0.9 | 0.00 | 0.00 | 0.00 | 84 | 1011.3 |
| 20260505090620 | 47 | 235 | 0.9 | 3.5 | 0.00 | 0.00 | 0.00 | 84 | 1011.3 |
| 20260505085623 | 47 | 228 | 2.6 | 6.1 | 0.00 | 0.00 | 0.00 | 83 | 1011.2 |
| 20260505084721 | 47 | 226 | 4.3 | 8.7 | 0.00 | 0.00 | 0.00 | 82 | 1011.2 |
| 20260505083720 | 47 | 219 | 2.6 | 5.2 | 0.00 | 0.00 | 0.00 | 83 | 1011.2 |
| 20260505081723 | 47 | 268 | 1.7 | 7.0 | 0.00 | 0.00 | 0.00 | 82 | 1011.0 |
| 20260505080821 | 47 | 242 | 2.6 | 6.1 | 0.00 | 0.00 | 0.00 | 81 | 1011.2 |
| 20260505074822 | 47 | 228 | 1.7 | 3.5 | 0.00 | 0.00 | 0.00 | 81 | 1011.1 |
| 20260505073821 | 47 | 238 | 1.7 | 6.1 | 0.00 | 0.00 | 0.00 | 81 | 1011.1 |
| 20260505072919 | 47 | 235 | 1.7 | 5.2 | 0.00 | 0.00 | 0.00 | 80 | 1011.2 |
| 20260505071921 | 47 | 230 | 2.6 | 6.1 | 0.00 | 0.00 | 0.00 | 80 | 1011.1 |
| 20260505071020 | 48 | 219 | 3.5 | 7.0 | 0.00 | 0.00 | 0.00 | 80 | 1011.2 |
| 20260505065020 | 48 | 225 | 1.7 | 2.6 | 0.00 | 0.00 | 0.00 | 81 | 1011.1 |
| 20260505064021 | 48 | 225 | 1.7 | 4.3 | 0.00 | 0.00 | 0.00 | 80 | 1011.1 |
| 20260505062022 | 48 | 226 | 2.6 | 6.1 | 0.00 | 0.00 | 0.00 | 80 | 1010.9 |
| 20260505061020 | 48 | 229 | 3.5 | 7.0 | 0.00 | 0.00 | 0.00 | 80 | 1010.9 |
| 20260505060120 | 48 | 230 | 2.6 | 6.1 | 0.00 | 0.00 | 0.00 | 80 | 1010.9 |
| 20260505055121 | 48 | 221 | 1.7 | 4.3 | 0.00 | 0.00 | 0.00 | 80 | 1010.8 |
| 20260505054120 | 48 | 211 | 1.7 | 3.5 | 0.00 | 0.00 | 0.00 | 81 | 1010.9 |
| 20260505053120 | 47 | 221 | 3.5 | 7.0 | 0.00 | 0.00 | 0.00 | 81 | 1010.8 |
| 20260505052122 | 48 | 228 | 0.9 | 3.5 | 0.00 | 0.00 | 0.00 | 80 | 1010.7 |
| 20260505051220 | 48 | 227 | 2.6 | 5.2 | 0.00 | 0.00 | 0.00 | 81 | 1010.6 |
| 20260505040221 | 47 | 223 | 1.7 | 3.5 | 0.00 | 0.00 | 0.00 | 81 | 1010.6 |
| 20260505035227 | 47 | 225 | 0.0 | 1.7 | 0.00 | 0.00 | 0.00 | 81 | 1010.5 |
| 20260505034326 | 47 | 225 | 0.9 | 2.6 | 0.00 | 0.00 | 0.00 | 81 | 1010.4 |
| 20260505033326 | 46 | 224 | 0.9 | 1.7 | 0.00 | 0.00 | 0.00 | 81 | 1010.5 |
| 20260505031328 | 47 | 225 | 0.0 | 0.0 | 0.00 | 0.00 | 0.00 | 79 | 1010.6 |
| 20260505030425 | 47 | 225 | 0.0 | 0.0 | 0.00 | 0.00 | 0.00 | 79 | 1010.4 |
| 20260505025428 | 47 | 180 | 0.9 | 2.6 | 0.00 | 0.00 | 0.00 | 78 | 1010.6 |
| 20260505024525 | 48 | 225 | 0.9 | 3.5 | 0.00 | 0.00 | 0.00 | 77 | 1010.8 |
| 20260505023525 | 47 | 224 | 1.7 | 3.5 | 0.00 | 0.00 | 0.00 | 78 | 1010.7 |
| 20260505022525 | 48 | 225 | 0.0 | 0.9 | 0.00 | 0.00 | 0.00 | 77 | 1010.7 |
| 20260505021526 | 47 | 204 | 2.6 | 4.3 | 0.00 | 0.00 | 0.00 | 78 | 1010.5 |
| 20260505020524 | 47 | 216 | 0.9 | 1.7 | 0.00 | 0.00 | 0.00 | 78 | 1010.6 |
| 20260505015528 | 48 | 225 | 0.0 | 0.0 | 0.00 | 0.00 | 0.00 | 79 | 1010.6 |
| 20260505015426 | 48 | 225 | 0.9 | 1.7 | 0.00 | 0.00 | 0.00 | 79 | 1010.6 |
| 20260505014525 | 48 | 225 | 0.9 | 1.7 | 0.00 | 0.00 | 0.00 | 79 | 1010.6 |
| 20260505013525 | 48 | 247 | 0.0 | 1.7 | 0.00 | 0.00 | 0.00 | 78 | 1010.6 |
| 20260505011526 | 48 | 225 | 0.0 | 0.9 | 0.00 | 0.00 | 0.00 | 78 | 1010.4 |
| 20260505010526 | 48 | 225 | 0.0 | 0.0 | 0.00 | 0.00 | 0.00 | 77 | 1010.3 |
| 20260505004526 | 49 | 207 | 0.9 | 1.7 | 0.00 | 0.00 | 0.00 | 76 | 1010.1 |
| 20260505003526 | 49 | 231 | 0.9 | 3.5 | 0.00 | 0.00 | 0.00 | 75 | 1009.9 |
| 20260505002525 | 50 | 221 | 4.3 | 9.6 | 0.00 | 0.00 | 0.00 | 73 | 1009.9 |
| 20260505001524 | 50 | 265 | 0.9 | 5.2 | 0.00 | 0.00 | 0.00 | 72 | 1009.7 |
| 20260505000525 | 51 | 234 | 1.7 | 5.2 | 0.00 | 0.00 | 0.00 | 71 | 1009.4 |
| 20260504234624 | 52 | 226 | 0.9 | 3.5 | 0.00 | 0.00 | 0.00 | 72 | 1009.1 |
| 20260504233626 | 53 | 234 | 0.9 | 1.7 | 0.00 | 0.00 | 0.00 | 70 | 1008.9 |
| 20260504230625 | 56 | 247 | 0.0 | 1.7 | 0.00 | 0.00 | 0.00 | 66 | 1008.6 |
| 20260504225627 | 57 | 230 | 0.9 | 2.6 | 0.00 | 0.00 | 0.00 | 64 | 1008.5 |
| 20260504224724 | 57 | 247 | 2.6 | 5.2 | 0.00 | 0.00 | 0.00 | 63 | 1008.3 |
| 20260504221824 | 58 | 270 | 2.6 | 6.1 | 0.00 | 0.00 | 0.00 | 61 | 1008.4 |
| 20260504220828 | 58 | 258 | 0.9 | 5.2 | 0.00 | 0.00 | 0.00 | 61 | 1008.2 |
| 20260504215924 | 58 | 255 | 2.6 | 5.2 | 0.00 | 0.00 | 0.00 | 61 | 1007.9 |
| 20260504214925 | 58 | 253 | 3.5 | 7.0 | 0.00 | 0.00 | 0.00 | 61 | 1007.9 |
| 20260504213928 | 58 | 234 | 0.9 | 1.7 | 0.00 | 0.00 | 0.00 | 61 | 1007.9 |
| 20260504212926 | 58 | 261 | 1.7 | 4.3 | 0.00 | 0.00 | 0.00 | 62 | 1007.8 |
| 20260504211927 | 59 | 260 | 0.0 | 2.6 | 0.00 | 0.00 | 0.00 | 61 | 1007.8 |
| 20260504210927 | 59 | 232 | 0.9 | 4.3 | 0.00 | 0.00 | 0.00 | 61 | 1007.8 |
| 20260504205924 | 59 | 258 | 1.7 | 4.3 | 0.00 | 0.00 | 0.00 | 61 | 1007.8 |
| 20260504204927 | 59 | 215 | 3.5 | 7.0 | 0.00 | 0.00 | 0.00 | 61 | 1007.8 |
| 20260504202124 | 58 | 215 | 2.6 | 7.8 | 0.00 | 0.00 | 0.00 | 63 | 1007.6 |
| 20260504201126 | 57 | 219 | 2.6 | 5.2 | 0.00 | 0.01 | 0.00 | 64 | 1007.7 |
| 20260504195324 | 54 | 225 | 1.7 | 4.3 | 0.00 | 0.01 | 0.00 | 67 | 1007.7 |
| 20260504194328 | 54 | 229 | 4.3 | 6.1 | 0.00 | 0.02 | 0.00 | 68 | 1007.8 |
| 20260504193327 | 53 | 238 | 3.5 | 6.1 | 0.00 | 0.02 | 0.00 | 69 | 1007.9 |
| 20260504192326 | 53 | 229 | 2.6 | 5.2 | 0.00 | 0.02 | 0.00 | 71 | 1007.9 |
| 20260504191327 | 52 | 237 | 1.7 | 3.5 | 0.00 | 0.02 | 0.00 | 73 | 1008.1 |
| 20260504190325 | 52 | 225 | 3.5 | 7.0 | 0.00 | 0.03 | 0.00 | 74 | 1008.3 |
| 20260504190228 | 51 | 203 | 0.9 | 3.5 | 0.00 | 0.03 | 0.00 | 75 | 1008.3 |
| 20260504184324 | 52 | 225 | 2.6 | 6.1 | 0.00 | 0.04 | 0.00 | 74 | 1008.7 |